When you browse on this site, cookies collect data to enhance your experience and personalize the content and advertising you see.
Visit our Privacy Policy to learn more. By continuing to use the site, you agree to this use of cookies and data.

Hourly Weather Abomey

Today, 29 September, Tuesday

Time Temperature Precipitation Wind Pressure Humidity
00:00 +24°C° 0.2 mm 2 mps 739 mmHg 96%
01:00 +24°C° 0.9 mm 2 mps 739 mmHg 96%
02:00 +24°C° 0.9 mm 2 mps 739 mmHg 97%
03:00 +24°C° 0.9 mm 2 mps 738 mmHg 97%
04:00 +24°C° 0.3 mm 2 mps 739 mmHg 97%
05:00 +24°C° 0.3 mm 2 mps 739 mmHg 97%
06:00 +24°C° 0.3 mm 2 mps 739 mmHg 97%
07:00 +25°C° 0 mm 2 mps 740 mmHg 94%
08:00 +25°C° 0 mm 2 mps 740 mmHg 91%
09:00 +26°C° 0 mm 1 mps 740 mmHg 89%
10:00 +26°C° 0.1 mm 1 mps 740 mmHg 88%
11:00 +27°C° 0.1 mm 1 mps 740 mmHg 88%
12:00 +27°C° 0.1 mm 1 mps 739 mmHg 87%
13:00 +27°C° 0.2 mm 1 mps 739 mmHg 87%
14:00 +27°C° 0.2 mm 2 mps 738 mmHg 87%
15:00 +27°C° 0.2 mm 2 mps 737 mmHg 87%
16:00 +26°C° 0 mm 2 mps 738 mmHg 89%
17:00 +26°C° 0 mm 3 mps 738 mmHg 90%
18:00 +25°C° 0 mm 3 mps 738 mmHg 91%
19:00 +25°C° 0 mm 3 mps 739 mmHg 92%
20:00 +24°C° 0 mm 2 mps 739 mmHg 93%
21:00 +24°C° 0 mm 2 mps 739 mmHg 94%
22:00 +24°C° 0 mm 2 mps 739 mmHg 95%
23:00 +24°C° 0 mm 1 mps 739 mmHg 96%

Tomorrow, 30 September, Wednesday

Time Temperature Precipitation Wind Pressure Humidity
00:00 +24°C° 0 mm 1 mps 739 mmHg 96%
01:00 +24°C° 0 mm 1 mps 739 mmHg 96%
02:00 +24°C° 0 mm 1 mps 738 mmHg 96%
03:00 +24°C° 0 mm 1 mps 738 mmHg 96%
04:00 +24°C° 1 mm 1 mps 738 mmHg 96%
05:00 +24°C° 1 mm 1 mps 739 mmHg 97%
06:00 +24°C° 1 mm 2 mps 739 mmHg 97%
07:00 +24°C° 2.4 mm 2 mps 739 mmHg 96%
08:00 +24°C° 2.4 mm 2 mps 739 mmHg 96%
09:00 +24°C° 2.4 mm 2 mps 740 mmHg 95%
10:00 +24°C° 2.7 mm 2 mps 739 mmHg 95%
11:00 +24°C° 2.7 mm 3 mps 739 mmHg 95%
12:00 +24°C° 2.7 mm 3 mps 739 mmHg 95%
13:00 +24°C° 3.5 mm 3 mps 738 mmHg 95%
14:00 +24°C° 3.5 mm 2 mps 738 mmHg 96%
15:00 +24°C° 3.5 mm 2 mps 738 mmHg 97%
16:00 +24°C° 1.3 mm 2 mps 738 mmHg 97%
17:00 +24°C° 1.3 mm 1 mps 738 mmHg 97%
18:00 +23°C° 1.3 mm 1 mps 738 mmHg 97%
19:00 +23°C° 0 mm 1 mps 739 mmHg 97%
20:00 +23°C° 0 mm 1 mps 739 mmHg 98%
21:00 +23°C° 0 mm 1 mps 740 mmHg 98%
22:00 +23°C° 0 mm 1 mps 739 mmHg 98%
23:00 +23°C° 0 mm 1 mps 739 mmHg 98%

Day after tomorrow, 1 October, Thursday

Time Temperature Precipitation Wind Pressure Humidity
00:00 +23°C° 0 mm 1 mps 739 mmHg 98%
01:00 +23°C° 0 mm 1 mps 738 mmHg 98%
02:00 +23°C° 0 mm 1 mps 738 mmHg 98%
03:00 +22°C° 0 mm 1 mps 738 mmHg 98%
04:00 +23°C° 0 mm 1 mps 738 mmHg 98%
05:00 +23°C° 0 mm 1 mps 738 mmHg 98%
06:00 +23°C° 0 mm 1 mps 739 mmHg 98%
07:00 +24°C° 0.1 mm 1 mps 739 mmHg 93%
08:00 +26°C° 0.1 mm 1 mps 740 mmHg 89%
09:00 +27°C° 0.1 mm 1 mps 740 mmHg 85%
10:00 +28°C° 0.6 mm 2 mps 740 mmHg 82%
11:00 +29°C° 0.6 mm 2 mps 739 mmHg 79%
12:00 +29°C° 0.6 mm 3 mps 738 mmHg 76%
13:00 +30°C° 0.2 mm 3 mps 738 mmHg 74%
14:00 +30°C° 0.2 mm 3 mps 737 mmHg 73%
15:00 +30°C° 0.2 mm 3 mps 737 mmHg 71%
16:00 +29°C° 0 mm 3 mps 737 mmHg 76%
17:00 +27°C° 0 mm 2 mps 737 mmHg 80%
18:00 +26°C° 0 mm 2 mps 737 mmHg 84%
19:00 +25°C° 0 mm 2 mps 738 mmHg 86%
20:00 +25°C° 0 mm 2 mps 738 mmHg 87%
21:00 +24°C° 0 mm 2 mps 739 mmHg 89%
22:00 +24°C° 0 mm 2 mps 739 mmHg 90%
23:00 +24°C° 0 mm 2 mps 738 mmHg 91%

2 October, Friday

Time Temperature Precipitation Wind Pressure Humidity
00:00 +23°C° 0 mm 2 mps 738 mmHg 92%
01:00 +23°C° 0 mm 2 mps 738 mmHg 93%
02:00 +23°C° 0 mm 2 mps 738 mmHg 93%
03:00 +23°C° 0 mm 2 mps 737 mmHg 94%
04:00 +23°C° 0 mm 2 mps 738 mmHg 95%
05:00 +23°C° 0 mm 2 mps 738 mmHg 96%
06:00 +23°C° 0 mm 2 mps 738 mmHg 96%
07:00 +24°C° 0 mm 2 mps 739 mmHg 90%
08:00 +26°C° 0 mm 2 mps 739 mmHg 83%
09:00 +28°C° 0 mm 2 mps 740 mmHg 77%
10:00 +29°C° 0.1 mm 2 mps 739 mmHg 74%
11:00 +30°C° 0.1 mm 1 mps 739 mmHg 70%
12:00 +31°C° 0.1 mm 1 mps 739 mmHg 67%
13:00 +31°C° 0.1 mm 1 mps 738 mmHg 67%
14:00 +31°C° 0.1 mm 1 mps 737 mmHg 67%
15:00 +31°C° 0.1 mm 1 mps 737 mmHg 67%
16:00 +29°C° 0.2 mm 1 mps 737 mmHg 73%
17:00 +28°C° 0.2 mm 1 mps 737 mmHg 78%
18:00 +27°C° 0.2 mm 1 mps 737 mmHg 84%
19:00 +26°C° 0.4 mm 2 mps 738 mmHg 87%
20:00 +26°C° 0.4 mm 2 mps 738 mmHg 89%
21:00 +25°C° 0.4 mm 2 mps 739 mmHg 92%
22:00 +25°C° 0 mm 2 mps 739 mmHg 93%
23:00 +24°C° 0 mm 2 mps 739 mmHg 93%

3 October, Saturday

Time Temperature Precipitation Wind Pressure Humidity
00:00 +24°C° 0 mm 2 mps 738 mmHg 94%
01:00 +24°C° 0.2 mm 2 mps 738 mmHg 94%
02:00 +24°C° 0.2 mm 2 mps 738 mmHg 94%
03:00 +24°C° 0.2 mm 2 mps 738 mmHg 95%
04:00 +24°C° 1.2 mm 2 mps 738 mmHg 95%
05:00 +24°C° 1.2 mm 2 mps 738 mmHg 96%
06:00 +24°C° 1.2 mm 2 mps 739 mmHg 97%
07:00 +24°C° 0.7 mm 2 mps 739 mmHg 96%
08:00 +24°C° 0.7 mm 2 mps 739 mmHg 96%
09:00 +24°C° 0.7 mm 2 mps 740 mmHg 95%
10:00 +25°C° 0 mm 2 mps 739 mmHg 91%
11:00 +26°C° 0 mm 1 mps 739 mmHg 87%
12:00 +27°C° 0 mm 1 mps 738 mmHg 84%
13:00 +28°C° 0 mm 1 mps 738 mmHg 82%
14:00 +28°C° 0 mm 1 mps 737 mmHg 80%
15:00 +29°C° 0 mm 1 mps 737 mmHg 78%
16:00 +28°C° 0 mm 1 mps 737 mmHg 81%
17:00 +27°C° 0 mm 1 mps 737 mmHg 84%
18:00 +26°C° 0 mm 1 mps 737 mmHg 87%
19:00 +26°C° 0 mm 1 mps 738 mmHg 89%
20:00 +25°C° 0 mm 2 mps 739 mmHg 91%
21:00 +25°C° 0 mm 2 mps 739 mmHg 94%
22:00 +24°C° 0.9 mm 2 mps 739 mmHg 95%
23:00 +24°C° 0.9 mm 1 mps 739 mmHg 96%

4 October, Sunday

Time Temperature Precipitation Wind Pressure Humidity
00:00 +24°C° 0.9 mm 1 mps 739 mmHg 97%
01:00 +24°C° 0.1 mm 1 mps 739 mmHg 97%
02:00 +24°C° 0.1 mm 1 mps 739 mmHg 97%
03:00 +24°C° 0.1 mm 1 mps 738 mmHg 97%
04:00 +24°C° 0 mm 1 mps 739 mmHg 97%
05:00 +24°C° 0 mm 1 mps 739 mmHg 97%
06:00 +24°C° 0 mm 1 mps 739 mmHg 97%
07:00 +25°C° 0 mm 1 mps 740 mmHg 93%
08:00 +26°C° 0 mm 1 mps 740 mmHg 90%
09:00 +27°C° 0 mm 2 mps 741 mmHg 86%
10:00 +28°C° 0.4 mm 1 mps 740 mmHg 81%
11:00 +29°C° 0.4 mm 1 mps 740 mmHg 77%
12:00 +30°C° 0.4 mm 1 mps 739 mmHg 73%
13:00 +30°C° 1.8 mm 1 mps 739 mmHg 75%
14:00 +30°C° 1.8 mm 1 mps 738 mmHg 77%
15:00 +29°C° 1.8 mm 1 mps 737 mmHg 78%
16:00 +28°C° 2 mm 1 mps 738 mmHg 83%
17:00 +27°C° 2 mm 2 mps 738 mmHg 87%
18:00 +26°C° 2 mm 2 mps 738 mmHg 91%
19:00 +25°C° 0 mm 2 mps 739 mmHg 92%
20:00 +25°C° 0 mm 2 mps 739 mmHg 93%
21:00 +25°C° 0 mm 2 mps 740 mmHg 94%
22:00 +25°C° 0 mm 1 mps 740 mmHg 95%
23:00 +24°C° 0 mm 1 mps 740 mmHg 95%
Show more